Time,TemperatureF,DewpointF,PressureIn,WindDirection,WindDirectionDegrees,WindSpeedMPH,WindSpeedGustMPH,Humidity,HourlyPrecipIn,Conditions,Clouds,dailyrainin,SolarRadiationWatts/m^2,SoftwareType,DateUTC
2013-07-05 00:00:00,77.5,69.0,30.21,WSW,247,0.0,7.0,75,0.00,,,0.00,0.00,VWS V14.01,2013-07-05 04:00:00,
2013-07-05 00:01:00,77.5,69.0,30.21,SSW,202,0.0,1.0,75,0.00,,,0.00,0.00,VWS V14.01,2013-07-05 04:01:00,
2013-07-05 00:05:00,77.5,69.0,30.21,West,265,0.0,6.0,75,0.00,,,0.00,0.00,VWS V14.01,2013-07-05 04:05:00,
2013-07-05 00:06:00,77.5,69.0,30.21,SW,223,1.0,1.0,75,0.00,,,0.00,0.00,VWS V14.01,2013-07-05 04:06:00,
2013-07-05 00:10:00,77.5,69.3,30.21,SSW,205,0.0,5.0,76,0.00,,,0.00,0.00,VWS V14.01,2013-07-05 04:10:00,
2013-07-05 00:11:00,77.5,69.3,30.21,SSW,199,7.0,7.0,76,0.00,,,0.00,0.00,VWS V14.01,2013-07-05 04:11:00,
2013-07-05 00:15:00,77.3,69.2,30.21,SW,230,4.0,8.0,76,0.00,,,0.00,0.00,VWS V14.01,2013-07-05 04:15:00,
2013-07-05 00:16:00,77.3,69.2,30.21,West,263,4.0,5.0,76,0.00,,,0.00,0.00,VWS V14.01,2013-07-05 04:16:00,
2013-07-05 00:20:00,77.3,69.2,30.21,SW,229,2.0,7.0,76,0.00,,,0.00,0.00,VWS V14.01,2013-07-05 04:20:00,
2013-07-05 00:21:00,77.3,69.2,30.21,SW,221,5.0,6.0,76,0.00,,,0.00,0.00,VWS V14.01,2013-07-05 04:21:00,
2013-07-05 00:25:00,77.3,69.2,30.21,WSW,248,5.0,6.0,76,0.00,,,0.00,0.00,VWS V14.01,2013-07-05 04:25:00,
2013-07-05 00:26:00,77.3,69.2,30.21,SW,223,4.0,6.0,76,0.00,,,0.00,0.00,VWS V14.01,2013-07-05 04:26:00,
2013-07-05 00:30:00,77.1,69.0,30.21,WSW,249,4.0,7.0,76,0.00,,,0.00,0.00,VWS V14.01,2013-07-05 04:30:00,
2013-07-05 00:31:00,77.1,69.0,30.21,WSW,246,2.0,4.0,76,0.00,,,0.00,0.00,VWS V14.01,2013-07-05 04:31:00,
2013-07-05 00:35:00,77.1,69.0,30.21,SW,235,0.0,5.0,76,0.00,,,0.00,0.00,VWS V14.01,2013-07-05 04:35:00,
2013-07-05 00:36:00,77.1,69.0,30.21,WSW,244,6.0,8.0,76,0.00,,,0.00,0.00,VWS V14.01,2013-07-05 04:36:00,
2013-07-05 00:40:00,77.1,69.0,30.21,WSW,250,0.0,8.0,76,0.00,,,0.00,0.00,VWS V14.01,2013-07-05 04:40:00,
2013-07-05 00:41:00,77.1,69.0,30.21,WSW,248,4.0,5.0,76,0.00,,,0.00,0.00,VWS V14.01,2013-07-05 04:41:00,
2013-07-05 00:45:00,77.1,69.0,30.21,West,261,0.0,9.0,76,0.00,,,0.00,0.00,VWS V14.01,2013-07-05 04:45:00,
2013-07-05 00:46:00,77.1,69.0,30.21,SSW,207,0.0,4.0,76,0.00,,,0.00,0.00,VWS V14.01,2013-07-05 04:46:00,
2013-07-05 00:50:00,76.9,69.2,30.21,SW,223,0.0,4.0,77,0.00,,,0.00,0.00,VWS V14.01,2013-07-05 04:50:00,
2013-07-05 00:51:00,76.9,69.2,30.21,WSW,249,4.0,10.0,77,0.00,,,0.00,0.00,VWS V14.01,2013-07-05 04:51:00,
2013-07-05 00:55:00,76.9,69.2,30.21,SW,228,4.0,10.0,77,0.00,,,0.00,0.00,VWS V14.01,2013-07-05 04:55:00,
2013-07-05 00:56:00,76.9,69.2,30.21,WSW,252,0.0,5.0,77,0.00,,,0.00,0.00,VWS V14.01,2013-07-05 04:56:00,
2013-07-05 01:00:00,76.9,69.2,30.21,WSW,252,2.0,6.0,77,0.00,,,0.00,0.00,VWS V14.01,2013-07-05 05:00:00,
2013-07-05 01:01:00,76.9,69.2,30.21,West,269,0.0,2.0,77,0.00,,,0.00,0.00,VWS V14.01,2013-07-05 05:01:00,
2013-07-05 01:05:00,76.9,69.2,30.21,SW,221,6.0,6.0,77,0.00,,,0.00,0.00,VWS V14.01,2013-07-05 05:05:00,
2013-07-05 01:06:00,76.7,68.9,30.21,West,259,0.0,6.0,77,0.00,,,0.00,0.00,VWS V14.01,2013-07-05 05:06:00,
2013-07-05 01:10:00,76.7,68.9,30.21,WSW,246,4.0,7.0,77,0.00,,,0.00,0.00,VWS V14.01,2013-07-05 05:10:00,
2013-07-05 01:11:00,76.7,68.9,30.21,WSW,242,0.0,5.0,77,0.00,,,0.00,0.00,VWS V14.01,2013-07-05 05:11:00,
2013-07-05 01:15:00,76.7,68.9,30.21,WSW,254,0.0,5.0,77,0.00,,,0.00,0.00,VWS V14.01,2013-07-05 05:15:00,
2013-07-05 01:16:00,76.7,68.9,30.21,WSW,254,0.0,0.0,77,0.00,,,0.00,0.00,VWS V14.01,2013-07-05 05:16:00,
2013-07-05 01:20:00,76.6,68.9,30.21,West,271,0.0,1.0,77,0.00,,,0.00,0.00,VWS V14.01,2013-07-05 05:20:00,
2013-07-05 01:21:00,76.6,68.9,30.21,West,270,0.0,0.0,77,0.00,,,0.00,0.00,VWS V14.01,2013-07-05 05:21:00,
2013-07-05 01:25:00,76.4,69.0,30.21,West,267,0.0,5.0,78,0.00,,,0.00,0.00,VWS V14.01,2013-07-05 05:25:00,
2013-07-05 01:26:00,76.4,69.0,30.21,SSW,211,5.0,5.0,78,0.00,,,0.00,0.00,VWS V14.01,2013-07-05 05:26:00,
2013-07-05 01:30:00,76.4,69.0,30.21,SSW,213,5.0,7.0,78,0.00,,,0.00,0.00,VWS V14.01,2013-07-05 05:30:00,
2013-07-05 01:31:00,76.4,69.0,30.21,SW,231,0.0,5.0,78,0.00,,,0.00,0.00,VWS V14.01,2013-07-05 05:31:00,
2013-07-05 01:35:00,76.4,69.0,30.21,WSW,257,4.0,6.0,78,0.00,,,0.00,0.00,VWS V14.01,2013-07-05 05:35:00,
2013-07-05 01:36:00,76.2,68.8,30.21,WSW,255,4.0,7.0,78,0.00,,,0.00,0.00,VWS V14.01,2013-07-05 05:36:00,
2013-07-05 01:40:00,76.2,68.8,30.21,WSW,240,4.0,7.0,78,0.00,,,0.00,0.00,VWS V14.01,2013-07-05 05:40:00,
2013-07-05 01:41:00,76.2,68.8,30.21,WSW,253,4.0,7.0,78,0.00,,,0.00,0.00,VWS V14.01,2013-07-05 05:41:00,
2013-07-05 01:45:00,76.2,69.2,30.21,SSW,209,4.0,7.0,79,0.00,,,0.00,0.00,VWS V14.01,2013-07-05 05:45:00,
2013-07-05 01:46:00,76.2,69.2,30.21,SSW,202,0.0,5.0,79,0.00,,,0.00,0.00,VWS V14.01,2013-07-05 05:46:00,
2013-07-05 01:50:00,76.0,69.0,30.21,WSW,240,4.0,5.0,79,0.00,,,0.00,0.00,VWS V14.01,2013-07-05 05:50:00,
2013-07-05 01:51:00,76.0,69.0,30.21,WSW,251,4.0,8.0,79,0.00,,,0.00,0.00,VWS V14.01,2013-07-05 05:51:00,
2013-07-05 01:55:00,76.0,69.0,30.21,SW,230,0.0,8.0,79,0.00,,,0.00,0.00,VWS V14.01,2013-07-05 05:55:00,
2013-07-05 01:56:00,76.0,69.0,30.21,SSW,211,5.0,7.0,79,0.00,,,0.00,0.00,VWS V14.01,2013-07-05 05:56:00,
2013-07-05 02:00:00,76.0,69.0,30.21,WSW,242,0.0,7.0,79,0.00,,,0.00,0.00,VWS V14.01,2013-07-05 06:00:00,
2013-07-05 02:01:00,76.0,69.0,30.21,SSW,194,2.0,7.0,79,0.00,,,0.00,0.00,VWS V14.01,2013-07-05 06:01:00,
2013-07-05 02:05:00,76.0,69.0,30.21,West,264,0.0,7.0,79,0.00,,,0.00,0.00,VWS V14.01,2013-07-05 06:05:00,
2013-07-05 02:06:00,75.9,68.9,30.21,West,264,0.0,0.0,79,0.00,,,0.00,0.00,VWS V14.01,2013-07-05 06:06:00,
2013-07-05 02:10:00,75.9,69.3,30.21,WSW,240,2.0,10.0,80,0.00,,,0.00,0.00,VWS V14.01,2013-07-05 06:10:00,
2013-07-05 02:11:00,75.9,69.3,30.21,WSW,240,0.0,2.0,80,0.00,,,0.00,0.00,VWS V14.01,2013-07-05 06:11:00,
2013-07-05 02:15:00,75.9,69.3,30.21,WSW,248,2.0,7.0,80,0.00,,,0.00,0.00,VWS V14.01,2013-07-05 06:15:00,
2013-07-05 02:16:00,75.9,69.3,30.21,SW,221,7.0,10.0,80,0.00,,,0.00,0.00,VWS V14.01,2013-07-05 06:16:00,
2013-07-05 02:20:00,75.9,69.3,30.21,WSW,240,6.0,10.0,80,0.00,,,0.00,0.00,VWS V14.01,2013-07-05 06:20:00,
2013-07-05 02:21:00,75.9,69.3,30.21,SSW,203,0.0,6.0,80,0.00,,,0.00,0.00,VWS V14.01,2013-07-05 06:21:00,
2013-07-05 02:25:00,75.7,69.1,30.21,WSW,252,0.0,9.0,80,0.00,,,0.00,0.00,VWS V14.01,2013-07-05 06:25:00,
2013-07-05 02:26:00,75.7,69.1,30.21,West,261,0.0,0.0,80,0.00,,,0.00,0.00,VWS V14.01,2013-07-05 06:26:00,
2013-07-05 02:30:00,75.7,69.1,30.20,WSW,244,2.0,9.0,80,0.00,,,0.00,0.00,VWS V14.01,2013-07-05 06:30:00,
2013-07-05 02:31:00,75.5,68.9,30.20,WSW,248,1.0,3.0,80,0.00,,,0.00,0.00,VWS V14.01,2013-07-05 06:31:00,
2013-07-05 02:35:00,75.5,69.3,30.20,SW,230,7.0,7.0,81,0.00,,,0.00,0.00,VWS V14.01,2013-07-05 06:35:00,
2013-07-05 02:36:00,75.5,69.3,30.20,WSW,241,2.0,7.0,81,0.00,,,0.00,0.00,VWS V14.01,2013-07-05 06:36:00,
2013-07-05 02:40:00,75.5,69.3,30.20,WSW,248,4.0,7.0,81,0.00,,,0.00,0.00,VWS V14.01,2013-07-05 06:40:00,
2013-07-05 02:41:00,75.5,69.3,30.20,WSW,240,2.0,7.0,81,0.00,,,0.00,0.00,VWS V14.01,2013-07-05 06:41:00,
2013-07-05 02:45:00,75.3,69.1,30.21,WSW,241,0.0,8.0,81,0.00,,,0.00,0.00,VWS V14.01,2013-07-05 06:45:00,
2013-07-05 02:46:00,75.3,69.1,30.21,SW,229,2.0,2.0,81,0.00,,,0.00,0.00,VWS V14.01,2013-07-05 06:46:00,
2013-07-05 02:50:00,75.3,69.4,30.21,WSW,238,3.0,6.0,82,0.00,,,0.00,0.00,VWS V14.01,2013-07-05 06:50:00,
2013-07-05 02:51:00,75.3,69.4,30.21,SW,221,0.0,6.0,82,0.00,,,0.00,0.00,VWS V14.01,2013-07-05 06:51:00,
2013-07-05 02:55:00,75.2,69.3,30.21,WSW,244,0.0,6.0,82,0.00,,,0.00,0.00,VWS V14.01,2013-07-05 06:55:00,
2013-07-05 02:56:00,75.2,69.3,30.21,WSW,242,2.0,5.0,82,0.00,,,0.00,0.00,VWS V14.01,2013-07-05 06:56:00,
2013-07-05 03:00:00,75.2,69.3,30.21,SSW,211,6.0,7.0,82,0.00,,,0.00,0.00,VWS V14.01,2013-07-05 07:00:00,
2013-07-05 03:01:00,75.2,69.3,30.21,WSW,242,1.0,6.0,82,0.00,,,0.00,0.00,VWS V14.01,2013-07-05 07:01:00,
2013-07-05 03:05:00,75.2,69.7,30.21,WSW,244,3.0,10.0,83,0.00,,,0.00,0.00,VWS V14.01,2013-07-05 07:05:00,
2013-07-05 03:06:00,75.2,69.7,30.21,SW,214,5.0,5.0,83,0.00,,,0.00,0.00,VWS V14.01,2013-07-05 07:06:00,
2013-07-05 03:10:00,75.0,69.5,30.21,SW,231,6.0,7.0,83,0.00,,,0.00,0.00,VWS V14.01,2013-07-05 07:10:00,
2013-07-05 03:11:00,75.0,69.5,30.21,WSW,254,0.0,7.0,83,0.00,,,0.00,0.00,VWS V14.01,2013-07-05 07:11:00,
2013-07-05 03:15:00,75.0,69.5,30.21,West,270,0.0,9.0,83,0.00,,,0.00,0.00,VWS V14.01,2013-07-05 07:15:00,
2013-07-05 03:16:00,75.0,69.5,30.21,WNW,282,0.0,5.0,83,0.00,,,0.00,0.00,VWS V14.01,2013-07-05 07:16:00,
2013-07-05 03:20:00,74.8,69.7,30.21,West,275,0.0,1.0,84,0.00,,,0.00,0.00,VWS V14.01,2013-07-05 07:20:00,
2013-07-05 03:25:00,74.8,69.7,30.21,WSW,258,0.0,4.0,84,0.00,,,0.00,0.00,VWS V14.01,2013-07-05 07:25:00,
2013-07-05 03:30:00,74.8,69.7,30.20,SW,234,4.0,6.0,84,0.00,,,0.00,0.00,VWS V14.01,2013-07-05 07:30:00,
2013-07-05 03:35:00,74.6,69.4,30.20,West,275,2.0,7.0,84,0.00,,,0.00,0.00,VWS V14.01,2013-07-05 07:35:00,
2013-07-05 03:40:00,74.6,69.4,30.20,West,268,0.0,6.0,84,0.00,,,0.00,0.00,VWS V14.01,2013-07-05 07:40:00,
2013-07-05 03:45:00,74.6,69.8,30.20,SW,234,4.0,8.0,85,0.00,,,0.00,0.00,VWS V14.01,2013-07-05 07:45:00,
2013-07-05 03:50:00,74.5,69.7,30.20,SSW,208,4.0,5.0,85,0.00,,,0.00,0.00,VWS V14.01,2013-07-05 07:50:00,
2013-07-05 03:55:00,74.5,69.7,30.20,SW,225,4.0,8.0,85,0.00,,,0.00,0.00,VWS V14.01,2013-07-05 07:55:00,
2013-07-05 04:00:00,74.3,69.5,30.20,SW,216,7.0,10.0,85,0.00,,,0.00,0.00,VWS V14.01,2013-07-05 08:00:00,
2013-07-05 04:05:00,74.3,69.8,30.20,WSW,246,5.0,7.0,86,0.00,,,0.00,0.00,VWS V14.01,2013-07-05 08:05:00,
2013-07-05 04:10:00,74.3,69.8,30.20,West,264,4.0,5.0,86,0.00,,,0.00,0.00,VWS V14.01,2013-07-05 08:10:00,
2013-07-05 04:15:00,74.1,69.7,30.19,SSW,209,0.0,0.0,86,0.00,,,0.00,0.00,VWS V14.01,2013-07-05 08:15:00,
2013-07-05 04:20:00,74.1,69.7,30.19,SW,223,0.0,0.0,86,0.00,,,0.00,0.00,VWS V14.01,2013-07-05 08:20:00,
2013-07-05 04:25:00,73.9,69.8,30.19,WSW,242,0.0,0.0,87,0.00,,,0.00,0.00,VWS V14.01,2013-07-05 08:25:00,
2013-07-05 04:30:00,73.9,69.8,30.20,West,261,0.0,1.0,87,0.00,,,0.00,0.00,VWS V14.01,2013-07-05 08:30:00,
2013-07-05 04:35:00,73.9,69.8,30.20,WSW,238,0.0,4.0,87,0.00,,,0.00,0.00,VWS V14.01,2013-07-05 08:35:00,
2013-07-05 04:40:00,73.8,69.7,30.20,WSW,240,0.0,0.0,87,0.00,,,0.00,0.00,VWS V14.01,2013-07-05 08:40:00,
2013-07-05 04:45:00,73.8,70.0,30.20,NW,304,0.0,0.0,88,0.00,,,0.00,0.00,VWS V14.01,2013-07-05 08:45:00,
2013-07-05 04:50:00,73.8,70.0,30.20,NW,304,0.0,0.0,88,0.00,,,0.00,0.00,VWS V14.01,2013-07-05 08:50:00,
2013-07-05 04:55:00,73.6,69.8,30.20,NW,304,0.0,0.0,88,0.00,,,0.00,0.00,VWS V14.01,2013-07-05 08:55:00,
2013-07-05 05:00:00,73.6,69.8,30.20,NW,304,0.0,1.0,88,0.00,,,0.00,0.00,VWS V14.01,2013-07-05 09:00:00,
2013-07-05 05:05:00,73.6,69.8,30.20,NW,304,0.0,0.0,88,0.00,,,0.00,0.00,VWS V14.01,2013-07-05 09:05:00,
2013-07-05 05:10:00,73.6,69.8,30.20,NW,304,0.0,0.0,88,0.00,,,0.00,0.00,VWS V14.01,2013-07-05 09:10:00,
2013-07-05 05:15:00,73.6,69.8,30.20,NW,304,0.0,0.0,88,0.00,,,0.00,0.00,VWS V14.01,2013-07-05 09:15:00,
2013-07-05 05:20:00,73.6,69.8,30.20,NW,304,0.0,1.0,88,0.00,,,0.00,0.00,VWS V14.01,2013-07-05 09:20:00,
2013-07-05 05:21:00,73.6,69.8,30.20,NW,304,0.0,0.0,88,0.00,,,0.00,0.00,VWS V14.01,2013-07-05 09:21:00,
2013-07-05 05:25:00,73.6,70.2,30.20,WSW,240,4.0,5.0,89,0.00,,,0.00,0.00,VWS V14.01,2013-07-05 09:25:00,
2013-07-05 05:26:00,73.6,70.2,30.20,West,271,2.0,5.0,89,0.00,,,0.00,0.00,VWS V14.01,2013-07-05 09:26:00,
2013-07-05 05:30:00,73.6,70.2,30.20,SW,225,1.0,6.0,89,0.00,,,0.00,0.00,VWS V14.01,2013-07-05 09:30:00,
2013-07-05 05:31:00,73.8,70.4,30.20,WSW,243,2.0,4.0,89,0.00,,,0.00,0.00,VWS V14.01,2013-07-05 09:31:00,
2013-07-05 05:35:00,73.8,70.4,30.20,SSW,206,0.0,4.0,89,0.00,,,0.00,0.00,VWS V14.01,2013-07-05 09:35:00,
2013-07-05 05:36:00,73.6,70.2,30.20,WSW,239,0.0,2.0,89,0.00,,,0.00,5.00,VWS V14.01,2013-07-05 09:36:00,
2013-07-05 05:40:00,73.6,70.2,30.20,WSW,257,5.0,6.0,89,0.00,,,0.00,5.00,VWS V14.01,2013-07-05 09:40:00,
2013-07-05 05:41:00,73.8,70.4,30.20,SSW,197,6.0,7.0,89,0.00,,,0.00,7.00,VWS V14.01,2013-07-05 09:41:00,
2013-07-05 05:45:00,73.6,70.2,30.21,SW,231,0.0,7.0,89,0.00,,,0.00,9.00,VWS V14.01,2013-07-05 09:45:00,
2013-07-05 05:46:00,73.6,70.2,30.21,SW,231,0.0,0.0,89,0.00,,,0.00,11.00,VWS V14.01,2013-07-05 09:46:00,
2013-07-05 05:50:00,73.6,70.2,30.21,SW,231,0.0,0.0,89,0.00,,,0.00,12.00,VWS V14.01,2013-07-05 09:50:00,
2013-07-05 05:52:00,73.6,70.2,30.21,SW,231,0.0,1.0,89,0.00,,,0.00,14.00,VWS V14.01,2013-07-05 09:52:00,
2013-07-05 05:55:00,73.6,70.2,30.21,SW,231,0.0,1.0,89,0.00,,,0.00,18.00,VWS V14.01,2013-07-05 09:55:00,
2013-07-05 05:57:00,73.6,70.2,30.21,SW,236,0.0,5.0,89,0.00,,,0.00,19.00,VWS V14.01,2013-07-05 09:57:00,
2013-07-05 06:00:00,73.6,70.2,30.21,SW,236,0.0,5.0,89,0.00,,,0.00,25.00,VWS V14.01,2013-07-05 10:00:00,
2013-07-05 06:02:00,73.6,70.2,30.21,SW,236,0.0,0.0,89,0.00,,,0.00,23.00,VWS V14.01,2013-07-05 10:02:00,
2013-07-05 06:05:00,73.6,70.2,30.21,SW,236,0.0,0.0,89,0.00,,,0.00,25.00,VWS V14.01,2013-07-05 10:05:00,
2013-07-05 06:07:00,73.6,70.2,30.21,SW,236,0.0,1.0,89,0.00,,,0.00,37.00,VWS V14.01,2013-07-05 10:07:00,
2013-07-05 06:10:00,73.6,70.2,30.21,SW,236,0.0,1.0,89,0.00,,,0.00,35.00,VWS V14.01,2013-07-05 10:10:00,
2013-07-05 06:12:00,73.6,70.2,30.21,SW,236,0.0,0.0,89,0.00,,,0.00,44.00,VWS V14.01,2013-07-05 10:12:00,
2013-07-05 06:15:00,73.6,70.2,30.21,SW,236,0.0,0.0,89,0.00,,,0.00,51.00,VWS V14.01,2013-07-05 10:15:00,
2013-07-05 06:17:00,73.6,70.2,30.21,SW,236,0.0,1.0,89,0.00,,,0.00,54.00,VWS V14.01,2013-07-05 10:17:00,
2013-07-05 06:20:00,73.6,70.2,30.21,SW,236,0.0,1.0,89,0.00,,,0.00,56.00,VWS V14.01,2013-07-05 10:20:00,
2013-07-05 06:22:00,73.6,70.5,30.21,SW,236,0.0,0.0,90,0.00,,,0.00,42.00,VWS V14.01,2013-07-05 10:22:00,
2013-07-05 06:25:00,73.8,70.7,30.21,SW,236,0.0,1.0,90,0.00,,,0.00,37.00,VWS V14.01,2013-07-05 10:25:00,
2013-07-05 06:27:00,73.8,70.7,30.21,SW,236,0.0,0.0,90,0.00,,,0.00,54.00,VWS V14.01,2013-07-05 10:27:00,
2013-07-05 06:30:00,73.8,70.7,30.21,SW,236,0.0,0.0,90,0.00,,,0.00,54.00,VWS V14.01,2013-07-05 10:30:00,
2013-07-05 06:32:00,73.8,70.7,30.21,SW,236,0.0,0.0,90,0.00,,,0.00,58.00,VWS V14.01,2013-07-05 10:32:00,
2013-07-05 06:35:00,73.8,70.7,30.21,SW,236,0.0,0.0,90,0.00,,,0.00,70.00,VWS V14.01,2013-07-05 10:35:00,
2013-07-05 06:37:00,73.8,70.7,30.21,SW,236,0.0,0.0,90,0.00,,,0.00,62.00,VWS V14.01,2013-07-05 10:37:00,
2013-07-05 06:40:00,73.8,70.7,30.21,SW,236,0.0,1.0,90,0.00,,,0.00,79.00,VWS V14.01,2013-07-05 10:40:00,
2013-07-05 06:42:00,73.8,70.7,30.21,WSW,243,0.0,0.0,90,0.00,,,0.00,69.00,VWS V14.01,2013-07-05 10:42:00,
2013-07-05 06:45:00,73.9,70.8,30.21,SSW,202,4.0,4.0,90,0.00,,,0.00,79.00,VWS V14.01,2013-07-05 10:45:00,
2013-07-05 06:48:00,73.9,70.8,30.21,SSW,209,5.0,5.0,90,0.00,,,0.00,88.00,VWS V14.01,2013-07-05 10:48:00,
2013-07-05 06:50:00,73.9,70.8,30.21,West,266,3.0,7.0,90,0.00,,,0.00,67.00,VWS V14.01,2013-07-05 10:50:00,
2013-07-05 06:52:00,74.1,70.7,30.21,WSW,244,0.0,4.0,89,0.00,,,0.00,76.00,VWS V14.01,2013-07-05 10:52:00,
2013-07-05 06:55:00,74.1,70.7,30.21,WSW,241,0.0,4.0,89,0.00,,,0.00,83.00,VWS V14.01,2013-07-05 10:55:00,
2013-07-05 06:58:00,74.1,70.7,30.21,WSW,248,4.0,5.0,89,0.00,,,0.00,86.00,VWS V14.01,2013-07-05 10:58:00,
2013-07-05 07:00:00,74.3,70.8,30.21,SW,235,2.0,8.0,89,0.00,,,0.00,162.00,VWS V14.01,2013-07-05 11:00:00,
2013-07-05 07:03:00,74.3,71.5,30.21,WSW,244,0.0,4.0,91,0.00,,,0.00,97.00,VWS V14.01,2013-07-05 11:03:00,
2013-07-05 07:05:00,74.5,71.1,30.21,SW,229,1.0,8.0,89,0.00,,,0.00,183.00,VWS V14.01,2013-07-05 11:05:00,
2013-07-05 07:08:00,74.5,70.7,30.21,West,271,4.0,10.0,88,0.00,,,0.00,105.00,VWS V14.01,2013-07-05 11:08:00,
2013-07-05 07:10:00,74.5,70.7,30.21,West,272,5.0,10.0,88,0.00,,,0.00,107.00,VWS V14.01,2013-07-05 11:10:00,
2013-07-05 07:13:00,74.6,70.8,30.21,SSW,196,0.0,8.0,88,0.00,,,0.00,111.00,VWS V14.01,2013-07-05 11:13:00,
2013-07-05 07:15:00,74.6,70.5,30.21,West,277,1.0,8.0,87,0.00,,,0.00,114.00,VWS V14.01,2013-07-05 11:15:00,
2013-07-05 07:18:00,74.8,70.7,30.21,WNW,284,0.0,1.0,87,0.00,,,0.00,127.00,VWS V14.01,2013-07-05 11:18:00,
2013-07-05 07:20:00,74.8,70.7,30.21,WNW,288,4.0,5.0,87,0.00,,,0.00,127.00,VWS V14.01,2013-07-05 11:20:00,
2013-07-05 07:23:00,75.0,70.5,30.21,SW,236,1.0,6.0,86,0.00,,,0.00,120.00,VWS V14.01,2013-07-05 11:23:00,
2013-07-05 07:25:00,75.0,70.5,30.21,SW,236,0.0,6.0,86,0.00,,,0.00,120.00,VWS V14.01,2013-07-05 11:25:00,
2013-07-05 07:28:00,75.2,70.7,30.21,SW,235,2.0,6.0,86,0.00,,,0.00,169.00,VWS V14.01,2013-07-05 11:28:00,
2013-07-05 07:30:00,75.2,70.7,30.21,WSW,254,4.0,6.0,86,0.00,,,0.00,162.00,VWS V14.01,2013-07-05 11:30:00,
2013-07-05 07:33:00,75.3,70.5,30.21,West,279,0.0,8.0,85,0.00,,,0.00,130.00,VWS V14.01,2013-07-05 11:33:00,
2013-07-05 07:35:00,75.5,70.7,30.21,West,265,1.0,8.0,85,0.00,,,0.00,146.00,VWS V14.01,2013-07-05 11:35:00,
2013-07-05 07:38:00,75.5,70.7,30.21,SW,228,2.0,7.0,85,0.00,,,0.00,178.00,VWS V14.01,2013-07-05 11:38:00,
2013-07-05 07:40:00,75.7,70.9,30.21,SW,228,0.0,7.0,85,0.00,,,0.00,132.00,VWS V14.01,2013-07-05 11:40:00,
2013-07-05 07:43:00,75.7,70.5,30.21,West,267,0.0,5.0,84,0.00,,,0.00,167.00,VWS V14.01,2013-07-05 11:43:00,
2013-07-05 07:45:00,75.9,70.7,30.22,WNW,284,5.0,8.0,84,0.00,,,0.00,144.00,VWS V14.01,2013-07-05 11:45:00,
2013-07-05 07:48:00,75.9,70.7,30.22,WSW,257,0.0,6.0,84,0.00,,,0.00,169.00,VWS V14.01,2013-07-05 11:48:00,
2013-07-05 07:50:00,75.9,70.7,30.22,SSW,198,5.0,6.0,84,0.00,,,0.00,188.00,VWS V14.01,2013-07-05 11:50:00,
2013-07-05 07:53:00,76.0,70.8,30.22,WSW,257,4.0,8.0,84,0.00,,,0.00,225.00,VWS V14.01,2013-07-05 11:53:00,
2013-07-05 07:55:00,76.0,70.8,30.22,SSW,193,6.0,8.0,84,0.00,,,0.00,193.00,VWS V14.01,2013-07-05 11:55:00,
2013-07-05 07:58:00,76.2,70.7,30.22,WNW,288,2.0,7.0,83,0.00,,,0.00,225.00,VWS V14.01,2013-07-05 11:58:00,
2013-07-05 08:00:00,76.2,70.7,30.22,WNW,288,0.0,7.0,83,0.00,,,0.00,216.00,VWS V14.01,2013-07-05 12:00:00,
2013-07-05 08:04:00,76.4,70.9,30.22,SSW,210,0.0,7.0,83,0.00,,,0.00,188.00,VWS V14.01,2013-07-05 12:04:00,
2013-07-05 08:05:00,76.4,70.9,30.22,SSW,205,2.0,7.0,83,0.00,,,0.00,171.00,VWS V14.01,2013-07-05 12:05:00,
2013-07-05 08:09:00,76.6,71.1,30.22,WNW,290,0.0,4.0,83,0.00,,,0.00,146.00,VWS V14.01,2013-07-05 12:09:00,
2013-07-05 08:10:00,76.6,71.1,30.22,West,276,2.0,4.0,83,0.00,,,0.00,162.00,VWS V14.01,2013-07-05 12:10:00,
2013-07-05 08:14:00,76.7,70.8,30.21,West,281,4.0,6.0,82,0.00,,,0.00,193.00,VWS V14.01,2013-07-05 12:14:00,
2013-07-05 08:15:00,76.7,70.8,30.21,West,261,4.0,6.0,82,0.00,,,0.00,257.00,VWS V14.01,2013-07-05 12:15:00,
2013-07-05 08:19:00,76.6,70.7,30.21,WSW,242,3.0,7.0,82,0.00,,,0.00,197.00,VWS V14.01,2013-07-05 12:19:00,
2013-07-05 08:20:00,76.6,70.7,30.21,WSW,248,0.0,7.0,82,0.00,,,0.00,197.00,VWS V14.01,2013-07-05 12:20:00,
2013-07-05 08:24:00,76.7,70.8,30.21,NW,304,5.0,6.0,82,0.00,,,0.00,490.00,VWS V14.01,2013-07-05 12:24:00,
2013-07-05 08:25:00,76.7,70.8,30.21,NW,306,2.0,6.0,82,0.00,,,0.00,490.00,VWS V14.01,2013-07-05 12:25:00,
2013-07-05 08:29:00,76.7,70.8,30.22,West,272,0.0,6.0,82,0.00,,,0.00,188.00,VWS V14.01,2013-07-05 12:29:00,
2013-07-05 08:30:00,76.7,70.8,30.22,West,272,0.0,6.0,82,0.00,,,0.00,188.00,VWS V14.01,2013-07-05 12:30:00,
2013-07-05 08:34:00,76.7,70.8,30.22,WSW,251,0.0,7.0,82,0.00,,,0.00,199.00,VWS V14.01,2013-07-05 12:34:00,
2013-07-05 08:35:00,76.9,71.0,30.22,WSW,251,0.0,7.0,82,0.00,,,0.00,199.00,VWS V14.01,2013-07-05 12:35:00,
2013-07-05 08:39:00,77.3,71.0,30.22,NW,318,0.0,8.0,81,0.00,,,0.00,283.00,VWS V14.01,2013-07-05 12:39:00,
2013-07-05 08:40:00,77.3,71.0,30.22,NW,318,0.0,8.0,81,0.00,,,0.00,283.00,VWS V14.01,2013-07-05 12:40:00,
2013-07-05 08:44:00,77.1,70.5,30.22,West,273,6.0,9.0,80,0.00,,,0.00,313.00,VWS V14.01,2013-07-05 12:44:00,
2013-07-05 08:45:00,77.1,70.5,30.22,West,273,6.0,9.0,80,0.00,,,0.00,313.00,VWS V14.01,2013-07-05 12:45:00,
2013-07-05 08:49:00,77.1,70.5,30.22,WSW,256,0.0,7.0,80,0.00,,,0.00,272.00,VWS V14.01,2013-07-05 12:49:00,
2013-07-05 08:50:00,77.1,70.5,30.22,WSW,256,0.0,7.0,80,0.00,,,0.00,272.00,VWS V14.01,2013-07-05 12:50:00,
2013-07-05 08:54:00,77.1,70.5,30.22,West,277,2.0,7.0,80,0.00,,,0.00,524.00,VWS V14.01,2013-07-05 12:54:00,
2013-07-05 08:55:00,77.1,70.5,30.22,West,277,2.0,7.0,80,0.00,,,0.00,524.00,VWS V14.01,2013-07-05 12:55:00,
2013-07-05 08:59:00,77.5,70.8,30.22,NW,305,0.0,0.0,80,0.00,,,0.00,214.00,VWS V14.01,2013-07-05 12:59:00,
2013-07-05 09:00:00,77.5,70.8,30.22,NW,305,0.0,8.0,80,0.00,,,0.00,214.00,VWS V14.01,2013-07-05 13:00:00,
2013-07-05 09:04:00,77.6,70.9,30.22,West,261,0.0,0.0,80,0.00,,,0.00,216.00,VWS V14.01,2013-07-05 13:04:00,
2013-07-05 09:05:00,77.6,70.9,30.22,West,261,0.0,7.0,80,0.00,,,0.00,216.00,VWS V14.01,2013-07-05 13:05:00,
2013-07-05 09:09:00,77.8,70.8,30.22,West,269,4.0,4.0,79,0.00,,,0.00,276.00,VWS V14.01,2013-07-05 13:09:00,
2013-07-05 09:10:00,77.8,70.8,30.22,West,278,4.0,7.0,79,0.00,,,0.00,276.00,VWS V14.01,2013-07-05 13:10:00,
2013-07-05 09:14:00,78.0,71.0,30.21,WSW,256,0.0,7.0,79,0.00,,,0.00,687.00,VWS V14.01,2013-07-05 13:14:00,
2013-07-05 09:15:00,78.0,71.0,30.21,WSW,256,0.0,7.0,79,0.00,,,0.00,687.00,VWS V14.01,2013-07-05 13:15:00,
2013-07-05 09:19:00,78.4,71.3,30.21,WNW,282,0.0,0.0,79,0.00,,,0.00,696.00,VWS V14.01,2013-07-05 13:19:00,
2013-07-05 09:20:00,78.4,71.3,30.21,West,280,0.0,7.0,79,0.00,,,0.00,696.00,VWS V14.01,2013-07-05 13:20:00,
2013-07-05 09:24:00,78.5,71.1,30.21,WNW,296,0.0,6.0,78,0.00,,,0.00,687.00,VWS V14.01,2013-07-05 13:24:00,
2013-07-05 09:25:00,78.5,71.1,30.21,WNW,296,0.0,6.0,78,0.00,,,0.00,687.00,VWS V14.01,2013-07-05 13:25:00,
2013-07-05 09:30:00,78.5,70.7,30.21,West,267,5.0,10.0,77,0.00,,,0.00,712.00,VWS V14.01,2013-07-05 13:30:00,
2013-07-05 09:35:00,78.4,70.6,30.21,West,262,1.0,5.0,77,0.00,,,0.00,673.00,VWS V14.01,2013-07-05 13:35:00,
2013-07-05 09:40:00,78.9,70.7,30.21,WSW,248,13.0,13.0,76,0.00,,,0.00,691.00,VWS V14.01,2013-07-05 13:40:00,
2013-07-05 09:45:00,79.1,70.9,30.21,WSW,246,0.0,8.0,76,0.00,,,0.00,691.00,VWS V14.01,2013-07-05 13:45:00,
2013-07-05 09:50:00,79.3,71.1,30.21,NNW,329,0.0,0.0,76,0.00,,,0.00,682.00,VWS V14.01,2013-07-05 13:50:00,
2013-07-05 09:55:00,79.8,71.2,30.21,WSW,238,0.0,0.0,75,0.00,,,0.00,698.00,VWS V14.01,2013-07-05 13:55:00,
2013-07-05 10:00:00,79.5,70.5,30.21,SW,236,1.0,7.0,74,0.00,,,0.00,733.00,VWS V14.01,2013-07-05 14:00:00,
2013-07-05 10:05:00,80.0,71.0,30.21,West,273,4.0,8.0,74,0.00,,,0.00,710.00,VWS V14.01,2013-07-05 14:05:00,
2013-07-05 10:10:00,80.2,71.2,30.21,West,268,0.0,1.0,74,0.00,,,0.00,722.00,VWS V14.01,2013-07-05 14:10:00,
2013-07-05 10:15:00,80.4,71.0,30.21,West,263,6.0,6.0,73,0.00,,,0.00,738.00,VWS V14.01,2013-07-05 14:15:00,
2013-07-05 10:20:00,81.3,71.0,30.21,West,273,0.0,7.0,71,0.00,,,0.00,770.00,VWS V14.01,2013-07-05 14:20:00,
2013-07-05 10:25:00,81.1,70.8,30.21,WNW,292,4.0,10.0,71,0.00,,,0.00,789.00,VWS V14.01,2013-07-05 14:25:00,
2013-07-05 10:30:00,82.1,71.8,30.21,West,270,2.0,6.0,71,0.00,,,0.00,213.00,VWS V14.01,2013-07-05 14:30:00,
2013-07-05 10:35:00,81.5,71.6,30.21,WNW,292,2.0,8.0,72,0.00,,,0.00,599.00,VWS V14.01,2013-07-05 14:35:00,
2013-07-05 10:40:00,81.1,70.8,30.21,WSW,248,3.0,9.0,71,0.00,,,0.00,397.00,VWS V14.01,2013-07-05 14:40:00,
2013-07-05 10:45:00,81.5,71.6,30.21,West,270,4.0,7.0,72,0.00,,,0.00,732.00,VWS V14.01,2013-07-05 14:45:00,
2013-07-05 10:50:00,82.1,71.3,30.21,West,270,5.0,9.0,70,0.00,,,0.00,663.00,VWS V14.01,2013-07-05 14:50:00,
2013-07-05 10:55:00,82.1,70.9,30.21,West,270,1.0,6.0,69,0.00,,,0.00,909.00,VWS V14.01,2013-07-05 14:55:00,
2013-07-05 11:00:00,82.3,71.5,30.20,WSW,248,4.0,7.0,70,0.00,,,0.00,844.00,VWS V14.01,2013-07-05 15:00:00,
2013-07-05 11:05:00,82.5,70.9,30.20,West,270,4.0,9.0,68,0.00,,,0.00,929.00,VWS V14.01,2013-07-05 15:05:00,
2013-07-05 11:10:00,82.5,71.7,30.20,WSW,248,4.0,10.0,70,0.00,,,0.00,640.00,VWS V14.01,2013-07-05 15:10:00,
2013-07-05 11:15:00,84.2,71.6,30.19,West,270,0.0,1.0,66,0.00,,,0.00,914.00,VWS V14.01,2013-07-05 15:15:00,
2013-07-05 11:20:00,83.7,71.1,30.19,West,270,5.0,9.0,66,0.00,,,0.00,923.00,VWS V14.01,2013-07-05 15:20:00,
2013-07-05 11:25:00,83.5,71.8,30.19,WSW,248,5.0,9.0,68,0.00,,,0.00,951.00,VWS V14.01,2013-07-05 15:25:00,
2013-07-05 11:30:00,83.7,71.1,30.19,West,270,5.0,9.0,66,0.00,,,0.00,931.00,VWS V14.01,2013-07-05 15:30:00,
2013-07-05 11:35:00,84.4,71.4,30.19,WSW,248,3.0,9.0,65,0.00,,,0.00,494.00,VWS V14.01,2013-07-05 15:35:00,
2013-07-05 11:40:00,84.2,70.7,30.19,SW,225,3.0,9.0,64,0.00,,,0.00,1030.00,VWS V14.01,2013-07-05 15:40:00,
2013-07-05 11:45:00,84.4,70.9,30.19,WSW,248,3.0,7.0,64,0.00,,,0.00,1016.00,VWS V14.01,2013-07-05 15:45:00,
2013-07-05 11:50:00,84.8,70.8,30.19,West,270,3.0,11.0,63,0.00,,,0.00,937.00,VWS V14.01,2013-07-05 15:50:00,
2013-07-05 11:55:00,84.8,70.8,30.19,WSW,248,4.0,9.0,63,0.00,,,0.00,951.00,VWS V14.01,2013-07-05 15:55:00,
2013-07-05 12:00:00,85.4,71.4,30.19,SSW,202,2.0,8.0,63,0.00,,,0.00,687.00,VWS V14.01,2013-07-05 16:00:00,
2013-07-05 12:05:00,85.0,71.9,30.19,West,270,5.0,10.0,65,0.00,,,0.00,1138.00,VWS V14.01,2013-07-05 16:05:00,
2013-07-05 12:10:00,85.0,71.0,30.19,West,270,5.0,13.0,63,0.00,,,0.00,265.00,VWS V14.01,2013-07-05 16:10:00,
2013-07-05 12:15:00,85.6,70.6,30.19,West,270,4.0,9.0,61,0.00,,,0.00,864.00,VWS V14.01,2013-07-05 16:15:00,
2013-07-05 12:20:00,85.2,71.7,30.19,West,270,4.0,10.0,64,0.00,,,0.00,269.00,VWS V14.01,2013-07-05 16:20:00,
2013-07-05 12:25:00,85.0,72.4,30.19,WNW,292,4.0,8.0,66,0.00,,,0.00,277.00,VWS V14.01,2013-07-05 16:25:00,
2013-07-05 12:30:00,84.4,71.8,30.19,West,270,4.0,9.0,66,0.00,,,0.00,463.00,VWS V14.01,2013-07-05 16:30:00,
2013-07-05 12:35:00,84.6,71.1,30.19,SW,225,2.0,7.0,64,0.00,,,0.00,229.00,VWS V14.01,2013-07-05 16:35:00,
2013-07-05 12:40:00,84.6,71.1,30.19,WSW,248,1.0,7.0,64,0.00,,,0.00,191.00,VWS V14.01,2013-07-05 16:40:00,
2013-07-05 12:45:00,84.0,71.4,30.19,West,270,1.0,6.0,66,0.00,,,0.00,228.00,VWS V14.01,2013-07-05 16:45:00,
2013-07-05 12:50:00,84.6,72.0,30.19,WSW,248,0.0,1.0,66,0.00,,,0.00,789.00,VWS V14.01,2013-07-05 16:50:00,
2013-07-05 12:55:00,85.2,71.2,30.19,WSW,248,4.0,7.0,63,0.00,,,0.00,1063.00,VWS V14.01,2013-07-05 16:55:00,
2013-07-05 13:00:00,85.8,72.2,30.18,WSW,248,3.0,8.0,64,0.00,,,0.00,628.00,VWS V14.01,2013-07-05 17:00:00,
2013-07-05 13:05:00,87.1,72.5,30.18,WSW,248,1.0,6.0,62,0.00,,,0.00,709.00,VWS V14.01,2013-07-05 17:05:00,
2013-07-05 13:10:00,87.1,72.0,30.18,West,270,0.0,8.0,61,0.00,,,0.00,784.00,VWS V14.01,2013-07-05 17:10:00,
2013-07-05 13:15:00,85.8,70.8,30.18,West,270,7.0,10.0,61,0.00,,,0.00,359.00,VWS V14.01,2013-07-05 17:15:00,
2013-07-05 13:20:00,86.0,71.0,30.18,West,270,6.0,11.0,61,0.00,,,0.00,995.00,VWS V14.01,2013-07-05 17:20:00,
2013-07-05 13:25:00,86.9,71.8,30.18,WSW,248,5.0,11.0,61,0.00,,,0.00,1002.00,VWS V14.01,2013-07-05 17:25:00,
2013-07-05 13:30:00,87.3,70.2,30.17,WSW,248,6.0,12.0,57,0.00,,,0.00,1002.00,VWS V14.01,2013-07-05 17:30:00,
2013-07-05 13:35:00,87.1,70.0,30.17,WSW,248,6.0,12.0,57,0.00,,,0.00,1003.00,VWS V14.01,2013-07-05 17:35:00,
2013-07-05 13:40:00,87.9,70.3,30.17,SW,225,5.0,11.0,56,0.00,,,0.00,994.00,VWS V14.01,2013-07-05 17:40:00,
2013-07-05 13:45:00,87.3,68.1,30.17,WSW,248,8.0,14.0,53,0.00,,,0.00,944.00,VWS V14.01,2013-07-05 17:45:00,
2013-07-05 13:50:00,87.3,69.2,30.17,West,270,8.0,16.0,55,0.00,,,0.00,950.00,VWS V14.01,2013-07-05 17:50:00,
2013-07-05 13:55:00,87.1,69.0,30.17,WSW,248,8.0,15.0,55,0.00,,,0.00,994.00,VWS V14.01,2013-07-05 17:55:00,
2013-07-05 14:00:00,87.5,68.8,30.16,WSW,248,5.0,10.0,54,0.00,,,0.00,943.00,VWS V14.01,2013-07-05 18:00:00,
2013-07-05 14:05:00,88.5,68.6,30.16,SW,225,5.0,9.0,52,0.00,,,0.00,943.00,VWS V14.01,2013-07-05 18:05:00,
2013-07-05 14:10:00,88.1,68.3,30.16,West,270,7.0,13.0,52,0.00,,,0.00,595.00,VWS V14.01,2013-07-05 18:10:00,
2013-07-05 14:15:00,88.9,68.4,30.16,West,270,4.0,9.0,51,0.00,,,0.00,1056.00,VWS V14.01,2013-07-05 18:15:00,
2013-07-05 14:20:00,88.3,69.0,30.16,WSW,248,6.0,11.0,53,0.00,,,0.00,223.00,VWS V14.01,2013-07-05 18:20:00,
2013-07-05 14:25:00,87.9,69.7,30.16,WSW,248,4.0,10.0,55,0.00,,,0.00,468.00,VWS V14.01,2013-07-05 18:25:00,
2013-07-05 14:30:00,87.5,68.8,30.16,West,270,5.0,11.0,54,0.00,,,0.00,268.00,VWS V14.01,2013-07-05 18:30:00,
2013-07-05 14:35:00,87.7,69.0,30.16,WSW,248,4.0,8.0,54,0.00,,,0.00,721.00,VWS V14.01,2013-07-05 18:35:00,
2013-07-05 14:40:00,87.9,69.7,30.16,West,270,5.0,12.0,55,0.00,,,0.00,933.00,VWS V14.01,2013-07-05 18:40:00,
2013-07-05 14:49:00,88.9,69.0,30.16,West,261,6.0,6.0,52,0.00,,,0.00,914.00,VWS V14.01,2013-07-05 18:49:00,
2013-07-05 14:50:00,88.9,69.0,30.16,West,261,6.0,6.0,52,0.00,,,0.00,914.00,VWS V14.01,2013-07-05 18:50:00,
2013-07-05 14:54:00,88.9,69.6,30.16,WSW,252,6.0,6.0,53,0.00,,,0.00,942.00,VWS V14.01,2013-07-05 18:54:00,
2013-07-05 14:55:00,88.9,69.6,30.16,WSW,242,6.0,10.0,53,0.00,,,0.00,942.00,VWS V14.01,2013-07-05 18:55:00,
2013-07-05 14:59:00,88.5,68.6,30.15,West,261,12.0,13.0,52,0.00,,,0.00,868.00,VWS V14.01,2013-07-05 18:59:00,
2013-07-05 15:00:00,88.5,68.6,30.15,West,261,12.0,13.0,52,0.00,,,0.00,868.00,VWS V14.01,2013-07-05 19:00:00,
2013-07-05 15:04:00,87.9,68.1,30.15,SE,134,1.0,14.0,52,0.00,,,0.00,930.00,VWS V14.01,2013-07-05 19:04:00,
2013-07-05 15:05:00,87.9,68.1,30.15,SE,134,1.0,14.0,52,0.00,,,0.00,930.00,VWS V14.01,2013-07-05 19:05:00,
2013-07-05 15:09:00,88.7,68.8,30.15,WSW,244,0.0,10.0,52,0.00,,,0.00,193.00,VWS V14.01,2013-07-05 19:09:00,
2013-07-05 15:10:00,88.7,68.8,30.15,WSW,244,0.0,10.0,52,0.00,,,0.00,193.00,VWS V14.01,2013-07-05 19:10:00,
2013-07-05 15:14:00,88.3,69.0,30.15,WSW,250,5.0,12.0,53,0.00,,,0.00,863.00,VWS V14.01,2013-07-05 19:14:00,
2013-07-05 15:15:00,88.3,69.0,30.15,WSW,250,5.0,12.0,53,0.00,,,0.00,863.00,VWS V14.01,2013-07-05 19:15:00,
2013-07-05 15:19:00,88.5,68.6,30.15,West,274,0.0,13.0,52,0.00,,,0.00,192.00,VWS V14.01,2013-07-05 19:19:00,
2013-07-05 15:20:00,88.5,68.6,30.15,West,274,0.0,13.0,52,0.00,,,0.00,192.00,VWS V14.01,2013-07-05 19:20:00,
2013-07-05 15:24:00,88.3,68.5,30.15,WSW,245,7.0,11.0,52,0.00,,,0.00,865.00,VWS V14.01,2013-07-05 19:24:00,
2013-07-05 15:25:00,88.3,68.5,30.15,WSW,252,7.0,11.0,52,0.00,,,0.00,865.00,VWS V14.01,2013-07-05 19:25:00,
2013-07-05 15:29:00,87.9,69.2,30.15,SW,234,6.0,11.0,54,0.00,,,0.00,904.00,VWS V14.01,2013-07-05 19:29:00,
2013-07-05 15:30:00,87.9,69.2,30.15,SW,234,6.0,11.0,54,0.00,,,0.00,904.00,VWS V14.01,2013-07-05 19:30:00,
2013-07-05 15:34:00,88.3,69.6,30.15,West,267,2.0,13.0,54,0.00,,,0.00,921.00,VWS V14.01,2013-07-05 19:34:00,
2013-07-05 15:35:00,88.3,69.6,30.15,West,267,2.0,13.0,54,0.00,,,0.00,921.00,VWS V14.01,2013-07-05 19:35:00,
2013-07-05 15:39:00,88.1,68.8,30.15,West,270,4.0,4.0,53,0.00,,,0.00,174.00,VWS V14.01,2013-07-05 19:39:00,
2013-07-05 15:40:00,88.1,68.8,30.15,West,272,4.0,11.0,53,0.00,,,0.00,174.00,VWS V14.01,2013-07-05 19:40:00,
2013-07-05 15:44:00,89.2,69.3,30.14,WNW,294,11.0,13.0,52,0.00,,,0.00,775.00,VWS V14.01,2013-07-05 19:44:00,
2013-07-05 15:45:00,89.2,69.3,30.14,WNW,294,11.0,13.0,52,0.00,,,0.00,775.00,VWS V14.01,2013-07-05 19:45:00,
2013-07-05 15:49:00,88.7,68.3,30.14,SSW,207,4.0,14.0,51,0.00,,,0.00,773.00,VWS V14.01,2013-07-05 19:49:00,
2013-07-05 15:50:00,88.7,68.3,30.14,SSW,207,4.0,14.0,51,0.00,,,0.00,773.00,VWS V14.01,2013-07-05 19:50:00,
2013-07-05 15:54:00,88.9,68.4,30.14,West,279,4.0,12.0,51,0.00,,,0.00,761.00,VWS V14.01,2013-07-05 19:54:00,
2013-07-05 15:55:00,88.9,68.4,30.14,West,279,4.0,12.0,51,0.00,,,0.00,761.00,VWS V14.01,2013-07-05 19:55:00,
2013-07-05 15:59:00,88.9,68.4,30.14,WSW,250,0.0,12.0,51,0.00,,,0.00,788.00,VWS V14.01,2013-07-05 19:59:00,
2013-07-05 16:00:00,88.9,68.4,30.14,WSW,250,0.0,12.0,51,0.00,,,0.00,788.00,VWS V14.01,2013-07-05 20:00:00,
2013-07-05 16:04:00,88.7,68.8,30.14,SW,233,6.0,7.0,52,0.00,,,0.00,768.00,VWS V14.01,2013-07-05 20:04:00,
2013-07-05 16:05:00,88.7,68.8,30.14,SW,234,5.0,10.0,52,0.00,,,0.00,768.00,VWS V14.01,2013-07-05 20:05:00,
2013-07-05 16:09:00,88.9,67.9,30.14,WSW,240,6.0,6.0,50,0.00,,,0.00,705.00,VWS V14.01,2013-07-05 20:09:00,
2013-07-05 16:10:00,88.9,67.9,30.14,West,265,5.0,10.0,50,0.00,,,0.00,705.00,VWS V14.01,2013-07-05 20:10:00,
2013-07-05 16:14:00,88.9,68.4,30.13,West,273,4.0,4.0,51,0.00,,,0.00,694.00,VWS V14.01,2013-07-05 20:14:00,
2013-07-05 16:15:00,88.9,68.4,30.13,West,277,1.0,11.0,51,0.00,,,0.00,694.00,VWS V14.01,2013-07-05 20:15:00,
2013-07-05 16:19:00,89.2,68.7,30.13,West,275,6.0,6.0,51,0.00,,,0.00,703.00,VWS V14.01,2013-07-05 20:19:00,
2013-07-05 16:20:00,89.2,68.7,30.13,West,275,6.0,15.0,51,0.00,,,0.00,694.00,VWS V14.01,2013-07-05 20:20:00,
2013-07-05 16:24:00,89.2,69.3,30.13,West,270,7.0,7.0,52,0.00,,,0.00,686.00,VWS V14.01,2013-07-05 20:24:00,
2013-07-05 16:25:00,89.4,69.5,30.13,SW,216,8.0,8.0,52,0.00,,,0.00,673.00,VWS V14.01,2013-07-05 20:25:00,
2013-07-05 16:30:00,89.2,69.3,30.13,West,267,8.0,9.0,52,0.00,,,0.00,668.00,VWS V14.01,2013-07-05 20:30:00,
2013-07-05 16:35:00,89.2,69.3,30.13,WSW,252,4.0,7.0,52,0.00,,,0.00,640.00,VWS V14.01,2013-07-05 20:35:00,
2013-07-05 16:40:00,89.6,69.1,30.13,SSW,204,8.0,9.0,51,0.00,,,0.00,585.00,VWS V14.01,2013-07-05 20:40:00,
2013-07-05 16:45:00,90.0,68.9,30.13,West,268,6.0,8.0,50,0.00,,,0.00,622.00,VWS V14.01,2013-07-05 20:45:00,
2013-07-05 16:50:00,89.8,68.7,30.13,SW,236,7.0,7.0,50,0.00,,,0.00,617.00,VWS V14.01,2013-07-05 20:50:00,
2013-07-05 16:55:00,89.8,69.3,30.13,West,279,4.0,4.0,51,0.00,,,0.00,654.00,VWS V14.01,2013-07-05 20:55:00,
2013-07-05 17:00:00,89.6,69.7,30.12,West,269,0.0,0.0,52,0.00,,,0.00,626.00,VWS V14.01,2013-07-05 21:00:00,
2013-07-05 17:05:00,89.2,69.8,30.12,West,280,7.0,7.0,53,0.00,,,0.00,577.00,VWS V14.01,2013-07-05 21:05:00,
2013-07-05 17:10:00,88.5,69.2,30.12,West,271,10.0,10.0,53,0.00,,,0.00,543.00,VWS V14.01,2013-07-05 21:10:00,
2013-07-05 17:15:00,88.3,69.0,30.12,West,266,9.0,10.0,53,0.00,,,0.00,510.00,VWS V14.01,2013-07-05 21:15:00,
2013-07-05 17:20:00,88.7,69.9,30.12,WSW,237,0.0,1.0,54,0.00,,,0.00,510.00,VWS V14.01,2013-07-05 21:20:00,
2013-07-05 17:25:00,88.7,69.4,30.12,West,267,11.0,11.0,53,0.00,,,0.00,499.00,VWS V14.01,2013-07-05 21:25:00,
2013-07-05 17:30:00,88.7,70.5,30.11,WNW,300,0.0,0.0,55,0.00,,,0.00,468.00,VWS V14.01,2013-07-05 21:30:00,
2013-07-05 17:35:00,88.7,69.4,30.11,South,186,1.0,7.0,53,0.00,,,0.00,462.00,VWS V14.01,2013-07-05 21:35:00,
2013-07-05 17:40:00,88.7,69.4,30.11,WSW,238,7.0,7.0,53,0.00,,,0.00,457.00,VWS V14.01,2013-07-05 21:40:00,
2013-07-05 17:45:00,88.5,69.2,30.11,WSW,248,8.0,8.0,53,0.00,,,0.00,432.00,VWS V14.01,2013-07-05 21:45:00,
2013-07-05 17:50:00,88.5,69.8,30.11,West,273,1.0,3.0,54,0.00,,,0.00,417.00,VWS V14.01,2013-07-05 21:50:00,
2013-07-05 17:55:00,88.7,70.5,30.11,West,263,0.0,0.0,55,0.00,,,0.00,401.00,VWS V14.01,2013-07-05 21:55:00,
2013-07-05 18:00:00,88.7,69.9,30.11,SW,236,3.0,5.0,54,0.00,,,0.00,392.00,VWS V14.01,2013-07-05 22:00:00,
2013-07-05 18:05:00,88.9,70.7,30.11,WNW,287,0.0,0.0,55,0.00,,,0.00,367.00,VWS V14.01,2013-07-05 22:05:00,
2013-07-05 18:10:00,88.7,69.9,30.11,WSW,242,6.0,10.0,54,0.00,,,0.00,359.00,VWS V14.01,2013-07-05 22:10:00,
2013-07-05 18:15:00,88.3,70.1,30.11,West,268,9.0,10.0,55,0.00,,,0.00,345.00,VWS V14.01,2013-07-05 22:15:00,
2013-07-05 18:20:00,88.1,70.4,30.11,West,277,6.0,6.0,56,0.00,,,0.00,323.00,VWS V14.01,2013-07-05 22:20:00,
2013-07-05 18:25:00,87.9,69.7,30.11,SW,221,2.0,10.0,55,0.00,,,0.00,311.00,VWS V14.01,2013-07-05 22:25:00,
2013-07-05 18:30:00,87.9,70.3,30.11,WSW,254,6.0,6.0,56,0.00,,,0.00,297.00,VWS V14.01,2013-07-05 22:30:00,
2013-07-05 18:35:00,87.7,70.1,30.11,West,279,4.0,9.0,56,0.00,,,0.00,281.00,VWS V14.01,2013-07-05 22:35:00,
2013-07-05 18:39:00,87.5,70.4,30.11,West,263,8.0,8.0,57,0.00,,,0.00,274.00,VWS V14.01,2013-07-05 22:39:00,
2013-07-05 18:40:00,87.5,70.4,30.11,West,264,7.0,10.0,57,0.00,,,0.00,272.00,VWS V14.01,2013-07-05 22:40:00,
2013-07-05 18:44:00,87.5,70.4,30.11,West,273,0.0,0.0,57,0.00,,,0.00,257.00,VWS V14.01,2013-07-05 22:44:00,
2013-07-05 18:45:00,87.5,70.4,30.11,WSW,252,0.0,8.0,57,0.00,,,0.00,257.00,VWS V14.01,2013-07-05 22:45:00,
2013-07-05 18:49:00,87.5,70.4,30.11,WSW,252,4.0,5.0,57,0.00,,,0.00,246.00,VWS V14.01,2013-07-05 22:49:00,
2013-07-05 18:50:00,87.5,70.4,30.11,West,261,0.0,6.0,57,0.00,,,0.00,246.00,VWS V14.01,2013-07-05 22:50:00,
2013-07-05 18:54:00,87.5,70.4,30.11,WSW,254,5.0,5.0,57,0.00,,,0.00,223.00,VWS V14.01,2013-07-05 22:54:00,
2013-07-05 18:55:00,87.5,70.4,30.11,SW,236,4.0,10.0,57,0.00,,,0.00,223.00,VWS V14.01,2013-07-05 22:55:00,
2013-07-05 18:59:00,87.1,70.0,30.11,WSW,238,7.0,9.0,57,0.00,,,0.00,204.00,VWS V14.01,2013-07-05 22:59:00,
2013-07-05 19:00:00,87.1,70.0,30.11,South,174,7.0,14.0,57,0.00,,,0.00,204.00,VWS V14.01,2013-07-05 23:00:00,
2013-07-05 19:04:00,86.9,70.4,30.11,South,180,6.0,8.0,58,0.00,,,0.00,179.00,VWS V14.01,2013-07-05 23:04:00,
2013-07-05 19:05:00,86.9,70.4,30.11,South,180,0.0,8.0,58,0.00,,,0.00,179.00,VWS V14.01,2013-07-05 23:05:00,
2013-07-05 19:10:00,86.6,70.1,30.11,SW,215,5.0,6.0,58,0.00,,,0.00,162.00,VWS V14.01,2013-07-05 23:10:00,
2013-07-05 19:15:00,86.2,70.2,30.11,WSW,254,4.0,5.0,59,0.00,,,0.00,49.00,VWS V14.01,2013-07-05 23:15:00,
2013-07-05 19:20:00,85.8,69.8,30.11,West,271,6.0,7.0,59,0.00,,,0.00,83.00,VWS V14.01,2013-07-05 23:20:00,
2013-07-05 19:25:00,85.6,70.6,30.11,WSW,247,0.0,0.0,61,0.00,,,0.00,111.00,VWS V14.01,2013-07-05 23:25:00,
2013-07-05 19:30:00,85.4,70.4,30.11,SW,228,0.0,6.0,61,0.00,,,0.00,39.00,VWS V14.01,2013-07-05 23:30:00,
2013-07-05 19:35:00,85.0,70.5,30.11,West,265,1.0,1.0,62,0.00,,,0.00,116.00,VWS V14.01,2013-07-05 23:35:00,
2013-07-05 19:40:00,84.8,70.3,30.11,WSW,240,0.0,0.0,62,0.00,,,0.00,81.00,VWS V14.01,2013-07-05 23:40:00,
2013-07-05 19:45:00,84.8,70.8,30.11,WSW,244,0.0,1.0,63,0.00,,,0.00,40.00,VWS V14.01,2013-07-05 23:45:00,
2013-07-05 19:50:00,84.6,70.6,30.11,SW,221,4.0,7.0,63,0.00,,,0.00,26.00,VWS V14.01,2013-07-05 23:50:00,
2013-07-05 19:55:00,84.2,70.2,30.11,WSW,244,4.0,8.0,63,0.00,,,0.00,23.00,VWS V14.01,2013-07-05 23:55:00,
2013-07-05 20:00:00,83.9,70.4,30.11,WSW,254,4.0,5.0,64,0.00,,,0.00,23.00,VWS V14.01,2013-07-06 00:00:00,
2013-07-05 20:05:00,83.7,70.7,30.11,SW,236,0.0,0.0,65,0.00,,,0.00,28.00,VWS V14.01,2013-07-06 00:05:00,
2013-07-05 20:10:00,83.5,70.5,30.11,SW,232,1.0,5.0,65,0.00,,,0.00,28.00,VWS V14.01,2013-07-06 00:10:00,
2013-07-05 20:15:00,83.3,70.8,30.10,SSW,198,7.0,7.0,66,0.00,,,0.00,26.00,VWS V14.01,2013-07-06 00:15:00,
2013-07-05 20:20:00,83.3,70.8,30.10,SSW,213,0.0,0.0,66,0.00,,,0.00,19.00,VWS V14.01,2013-07-06 00:20:00,
2013-07-05 20:25:00,83.1,70.6,30.10,WSW,252,0.0,0.0,66,0.00,,,0.00,12.00,VWS V14.01,2013-07-06 00:25:00,
2013-07-05 20:30:00,82.9,70.8,30.11,WSW,239,0.0,0.0,67,0.00,,,0.00,5.00,VWS V14.01,2013-07-06 00:30:00,
2013-07-05 20:35:00,82.7,70.6,30.11,SW,235,7.0,8.0,67,0.00,,,0.00,0.00,VWS V14.01,2013-07-06 00:35:00,
2013-07-05 20:40:00,82.5,70.9,30.11,West,259,3.0,5.0,68,0.00,,,0.00,0.00,VWS V14.01,2013-07-06 00:40:00,
2013-07-05 20:45:00,82.3,70.7,30.11,WNW,299,0.0,5.0,68,0.00,,,0.00,0.00,VWS V14.01,2013-07-06 00:45:00,
2013-07-05 20:50:00,82.1,70.9,30.11,WSW,258,0.0,0.0,69,0.00,,,0.00,0.00,VWS V14.01,2013-07-06 00:50:00,
2013-07-05 20:55:00,82.1,70.9,30.11,WSW,254,1.0,6.0,69,0.00,,,0.00,0.00,VWS V14.01,2013-07-06 00:55:00,
2013-07-05 21:00:00,81.9,71.2,30.11,West,268,4.0,5.0,70,0.00,,,0.00,0.00,VWS V14.01,2013-07-06 01:00:00,
2013-07-05 21:05:00,81.7,71.0,30.11,South,174,6.0,7.0,70,0.00,,,0.00,0.00,VWS V14.01,2013-07-06 01:05:00,
2013-07-05 21:10:00,81.5,70.8,30.11,WSW,242,0.0,0.0,70,0.00,,,0.00,0.00,VWS V14.01,2013-07-06 01:10:00,
2013-07-05 21:15:00,81.5,70.8,30.13,WSW,257,2.0,6.0,70,0.00,,,0.00,0.00,VWS V14.01,2013-07-06 01:15:00,
2013-07-05 21:20:00,81.3,71.0,30.13,SSW,210,4.0,5.0,71,0.00,,,0.00,0.00,VWS V14.01,2013-07-06 01:20:00,
2013-07-05 21:25:00,81.3,71.0,30.13,SW,229,2.0,5.0,71,0.00,,,0.00,0.00,VWS V14.01,2013-07-06 01:25:00,
2013-07-05 21:30:00,81.1,70.8,30.13,WSW,249,6.0,7.0,71,0.00,,,0.00,0.00,VWS V14.01,2013-07-06 01:30:00,
2013-07-05 21:35:00,81.1,70.8,30.13,West,271,6.0,6.0,71,0.00,,,0.00,0.00,VWS V14.01,2013-07-06 01:35:00,
2013-07-05 21:40:00,81.0,71.1,30.13,SW,232,7.0,7.0,72,0.00,,,0.00,0.00,VWS V14.01,2013-07-06 01:40:00,
2013-07-05 21:45:00,80.8,70.9,30.13,West,265,6.0,6.0,72,0.00,,,0.00,0.00,VWS V14.01,2013-07-06 01:45:00,
2013-07-05 21:50:00,80.8,70.9,30.13,West,275,3.0,8.0,72,0.00,,,0.00,0.00,VWS V14.01,2013-07-06 01:50:00,
2013-07-05 21:55:00,80.8,70.9,30.13,SW,234,5.0,8.0,72,0.00,,,0.00,0.00,VWS V14.01,2013-07-06 01:55:00,
2013-07-05 21:59:00,80.8,70.9,30.14,WSW,255,7.0,8.0,72,0.00,,,0.00,0.00,VWS V14.01,2013-07-06 01:59:00,
2013-07-05 22:00:00,80.8,70.9,30.14,WSW,242,8.0,10.0,72,0.00,,,0.00,0.00,VWS V14.01,2013-07-06 02:00:00,
2013-07-05 22:04:00,80.6,70.8,30.14,WNW,285,0.0,0.0,72,0.00,,,0.00,0.00,VWS V14.01,2013-07-06 02:04:00,
2013-07-05 22:05:00,80.6,70.8,30.14,WNW,285,0.0,8.0,72,0.00,,,0.00,0.00,VWS V14.01,2013-07-06 02:05:00,
2013-07-05 22:09:00,80.4,71.0,30.14,SW,219,5.0,5.0,73,0.00,,,0.00,0.00,VWS V14.01,2013-07-06 02:09:00,
2013-07-05 22:10:00,80.4,71.0,30.14,WSW,250,0.0,8.0,73,0.00,,,0.00,0.00,VWS V14.01,2013-07-06 02:10:00,
2013-07-05 22:14:00,80.4,71.0,30.14,SW,227,5.0,9.0,73,0.00,,,0.00,0.00,VWS V14.01,2013-07-06 02:14:00,
2013-07-05 22:15:00,80.4,71.0,30.14,SW,219,9.0,9.0,73,0.00,,,0.00,0.00,VWS V14.01,2013-07-06 02:15:00,
2013-07-05 22:19:00,80.4,71.0,30.14,SSW,198,7.0,7.0,73,0.00,,,0.00,0.00,VWS V14.01,2013-07-06 02:19:00,
2013-07-05 22:20:00,80.4,71.0,30.14,SW,220,5.0,10.0,73,0.00,,,0.00,0.00,VWS V14.01,2013-07-06 02:20:00,
2013-07-05 22:24:00,80.2,70.8,30.14,SW,226,5.0,6.0,73,0.00,,,0.00,0.00,VWS V14.01,2013-07-06 02:24:00,
2013-07-05 22:25:00,80.4,71.0,30.14,SW,221,6.0,7.0,73,0.00,,,0.00,0.00,VWS V14.01,2013-07-06 02:25:00,
2013-07-05 22:29:00,80.2,70.8,30.14,SSW,197,6.0,6.0,73,0.00,,,0.00,0.00,VWS V14.01,2013-07-06 02:29:00,
2013-07-05 22:30:00,80.2,70.8,30.14,West,267,3.0,9.0,73,0.00,,,0.00,0.00,VWS V14.01,2013-07-06 02:30:00,
2013-07-05 22:34:00,80.2,70.8,30.14,WNW,285,0.0,0.0,73,0.00,,,0.00,0.00,VWS V14.01,2013-07-06 02:34:00,
2013-07-05 22:35:00,80.2,70.8,30.14,WNW,285,0.0,10.0,73,0.00,,,0.00,0.00,VWS V14.01,2013-07-06 02:35:00,
2013-07-05 22:39:00,80.0,70.6,30.14,West,272,6.0,9.0,73,0.00,,,0.00,0.00,VWS V14.01,2013-07-06 02:39:00,
2013-07-05 22:40:00,80.0,70.6,30.14,West,273,8.0,8.0,73,0.00,,,0.00,0.00,VWS V14.01,2013-07-06 02:40:00,
2013-07-05 22:44:00,80.0,70.6,30.14,WSW,256,6.0,6.0,73,0.00,,,0.00,0.00,VWS V14.01,2013-07-06 02:44:00,
2013-07-05 22:45:00,80.0,70.6,30.14,West,259,1.0,10.0,73,0.00,,,0.00,0.00,VWS V14.01,2013-07-06 02:45:00,
2013-07-05 22:49:00,79.8,70.4,30.14,WSW,253,0.0,1.0,73,0.00,,,0.00,0.00,VWS V14.01,2013-07-06 02:49:00,
2013-07-05 22:50:00,79.8,70.4,30.14,WSW,253,1.0,9.0,73,0.00,,,0.00,0.00,VWS V14.01,2013-07-06 02:50:00,
2013-07-05 22:54:00,79.8,70.8,30.14,West,266,9.0,9.0,74,0.00,,,0.00,0.00,VWS V14.01,2013-07-06 02:54:00,
2013-07-05 22:55:00,79.8,70.8,30.14,SW,217,5.0,10.0,74,0.00,,,0.00,0.00,VWS V14.01,2013-07-06 02:55:00,
2013-07-05 22:59:00,79.7,70.7,30.14,West,278,4.0,5.0,74,0.00,,,0.00,0.00,VWS V14.01,2013-07-06 02:59:00,
2013-07-05 23:00:00,79.7,70.7,30.14,West,278,5.0,9.0,74,0.00,,,0.00,0.00,VWS V14.01,2013-07-06 03:00:00,
2013-07-05 23:04:00,79.7,70.7,30.14,WSW,246,0.0,0.0,74,0.00,,,0.00,0.00,VWS V14.01,2013-07-06 03:04:00,
2013-07-05 23:05:00,79.7,70.7,30.14,WSW,246,0.0,11.0,74,0.00,,,0.00,0.00,VWS V14.01,2013-07-06 03:05:00,
2013-07-05 23:09:00,79.7,70.7,30.14,West,271,0.0,0.0,74,0.00,,,0.00,0.00,VWS V14.01,2013-07-06 03:09:00,
2013-07-05 23:10:00,79.7,70.7,30.14,West,271,0.0,7.0,74,0.00,,,0.00,0.00,VWS V14.01,2013-07-06 03:10:00,
2013-07-05 23:14:00,79.5,70.5,30.15,West,274,4.0,4.0,74,0.00,,,0.00,0.00,VWS V14.01,2013-07-06 03:14:00,
2013-07-05 23:15:00,79.5,70.5,30.15,West,265,0.0,5.0,74,0.00,,,0.00,0.00,VWS V14.01,2013-07-06 03:15:00,
2013-07-05 23:19:00,79.5,70.5,30.15,SW,230,0.0,0.0,74,0.00,,,0.00,0.00,VWS V14.01,2013-07-06 03:19:00,
2013-07-05 23:20:00,79.5,70.5,30.15,SW,230,0.0,5.0,74,0.00,,,0.00,0.00,VWS V14.01,2013-07-06 03:20:00,
2013-07-05 23:24:00,79.3,70.7,30.15,SW,215,3.0,3.0,75,0.00,,,0.00,0.00,VWS V14.01,2013-07-06 03:24:00,
2013-07-05 23:25:00,79.3,70.7,30.15,SW,215,0.0,5.0,75,0.00,,,0.00,0.00,VWS V14.01,2013-07-06 03:25:00,
2013-07-05 23:29:00,79.3,70.7,30.15,West,268,0.0,0.0,75,0.00,,,0.00,0.00,VWS V14.01,2013-07-06 03:29:00,
2013-07-05 23:30:00,79.3,70.7,30.15,West,268,0.0,7.0,75,0.00,,,0.00,0.00,VWS V14.01,2013-07-06 03:30:00,
2013-07-05 23:34:00,79.1,70.5,30.15,SW,230,0.0,0.0,75,0.00,,,0.00,0.00,VWS V14.01,2013-07-06 03:34:00,
2013-07-05 23:35:00,79.1,70.5,30.15,SW,230,0.0,1.0,75,0.00,,,0.00,0.00,VWS V14.01,2013-07-06 03:35:00,
2013-07-05 23:39:00,78.9,70.3,30.15,WSW,239,2.0,4.0,75,0.00,,,0.00,0.00,VWS V14.01,2013-07-06 03:39:00,
2013-07-05 23:40:00,78.9,70.3,30.15,WSW,239,4.0,6.0,75,0.00,,,0.00,0.00,VWS V14.01,2013-07-06 03:40:00,
2013-07-05 23:44:00,78.9,70.7,30.14,WSW,247,0.0,0.0,76,0.00,,,0.00,0.00,VWS V14.01,2013-07-06 03:44:00,
2013-07-05 23:45:00,78.9,70.7,30.14,WSW,247,0.0,5.0,76,0.00,,,0.00,0.00,VWS V14.01,2013-07-06 03:45:00,
2013-07-05 23:49:00,78.9,70.7,30.14,SW,232,2.0,2.0,76,0.00,,,0.00,0.00,VWS V14.01,2013-07-06 03:49:00,
2013-07-05 23:50:00,78.9,70.7,30.14,SW,236,0.0,0.0,76,0.00,,,0.00,0.00,VWS V14.01,2013-07-06 03:50:00,
2013-07-05 23:54:00,78.7,70.5,30.14,WNW,284,4.0,4.0,76,0.00,,,0.00,0.00,VWS V14.01,2013-07-06 03:54:00,
2013-07-05 23:55:00,78.7,70.5,30.14,WNW,284,4.0,5.0,76,0.00,,,0.00,0.00,VWS V14.01,2013-07-06 03:55:00,
2013-07-05 23:59:00,78.7,70.5,30.14,West,259,0.0,0.0,76,0.00,,,0.00,0.00,VWS V14.01,2013-07-06 03:59:00,